Flag for U.S.A. Weather past 2 weeks in Leawood, Kansas, U.S.A.

Now
70 °F

Overcast.


Feels Like: 67 °F
Forecast: 67 / 84 °F
Wind: 8 mph from Northeast

Location: Johnson County Executive Airport

Current Time: Aug 29, 2015 at 11:36:26 PM

Latest Report: Aug 29, 2015 at 10:53 PM


Visibility: 10 mi

Pressure: 30.01 "Hg

Humidity: 90%

Dew point: 67 °F

Location of LeawoodLocation

Historic Weather in Leawood — Graph

°F

Leawood temperature yesterday

Maximum temperature yesterday: 76 °F (at 3:53 PM)
Minimum temperature yesterday: 67 °F (at 1:53 AM)
Average temperature yesterday: 70 °F

Past Weeks' High & Low Weather Summary

 TemperatureHumidityPressure
High90 °F (Aug 17, 4:53 PM)97% (Aug 17, 7:53 AM)30.19 "Hg (Aug 17, 7:53 AM)
Low51 °F (Aug 24, 6:53 AM)37% (Aug 24, 1:53 PM)29.63 "Hg (Aug 18, 5:53 PM)
Average71 °F74%29.99 "Hg
* Reported Aug 14 9:53 PM — Aug 29 9:53 PM, Leawood, Weather by CustomWeather, © 2015

Note: Actual official high and low records may vary slightly from our data, if they occured in-between our weather recording intervals... More about our weather records

Advertising

Leawood weather history for previous 24 hours

 ConditionsComfort  
Time TempWeatherWind HumidityBarometerVisibility
9:53 PM
Sat, Aug 29
71 °FOvercast.9 mph87%30.01 "Hg10 mi
8:53 PM72 °FPassing clouds.5 mph84%29.99 "Hg10 mi
7:53 PM73 °FOvercast.7 mph84%29.97 "Hg10 mi
6:53 PM75 °FOvercast.5 mph74%29.97 "Hg10 mi
5:53 PM75 °FOvercast.5 mph76%29.97 "Hg10 mi
4:53 PM75 °FOvercast.3 mph76%29.97 "Hg10 mi
3:53 PM76 °FOvercast.5 mph72%29.97 "Hg9 mi
2:53 PM76 °FMore clouds than sun.5 mph72%29.98 "Hg9 mi
1:53 PM74 °FMore clouds than sun.7 mph76%29.99 "Hg8 mi
1:02 PM74 °FPartly sunny.6 mph79%30.02 "Hg8 mi
12:53 PM74 °FMostly cloudy.8 mph79%29.99 "Hg8 mi
11:53 AM71 °FOvercast.3 mph84%30.00 "Hg9 mi
10:53 AM69 °FLow clouds.No wind90%29.99 "Hg8 mi
9:53 AM69 °FLow clouds.8 mph90%29.98 "Hg7 mi
8:53 AM68 °FLow clouds.7 mph93%29.97 "Hg7 mi
7:53 AM68 °FLow clouds.9 mph93%29.96 "Hg9 mi
6:57 AM68 °FMostly cloudy.7 mph93%29.98 "Hg10 mi
5:53 AM69 °FLow clouds.7 mph93%29.92 "Hg8 mi
4:53 AM69 °FFog.3 mph96%29.91 "Hg6 mi
3:53 AM69 °FLow clouds.3 mph96%29.90 "Hg7 mi
1:53 AM70 °FOvercast.6 mph93%29.91 "Hg9 mi
12:53 AM70 °FPassing clouds.7 mph93%29.90 "Hg10 mi
11:53 PM
Fri, Aug 28
71 °FPassing clouds.8 mph90%29.90 "Hg10 mi
Weather by CustomWeather, © 2015

See weather overviewHow to use our weather pages